| time (UTC) | temp F | wind direction | speed MPH | gust MPH | rain 1hr in | rain 24hr in | rain mn in | humidity % | barometer mb |
| 20260510050016 | 74 | 180 | 1.0 | 6.0 | 0.00 | 0.00 | 0.00 | 82 | 1011.9 |
| 20260510045516 | 74 | 180 | 1.0 | 5.0 | 0.00 | 0.00 | 0.00 | 82 | 1011.8 |
| 20260510045017 | 74 | 158 | 1.0 | 4.0 | 0.00 | 0.00 | 0.00 | 83 | 1011.9 |
| 20260510044557 | 74 | 158 | 1.0 | 3.0 | 0.00 | 0.00 | 0.00 | 83 | 1012.0 |
| 20260510044037 | 74 | 0.0 | 2.0 | 0.00 | 0.00 | 0.00 | 83 | 1012.0 | |
| 20260510043517 | 74 | 0.0 | 2.0 | 0.00 | 0.00 | 0.00 | 83 | 1011.9 | |
| 20260510043017 | 75 | 0.0 | 2.0 | 0.00 | 0.00 | 0.00 | 82 | 1012.0 | |
| 20260510042537 | 75 | 0.0 | 2.0 | 0.00 | 0.00 | 0.00 | 82 | 1011.9 | |
| 20260510042016 | 75 | 0.0 | 0.0 | 0.00 | 0.00 | 0.00 | 82 | 1011.9 | |
| 20260510041516 | 75 | 0.0 | 0.0 | 0.00 | 0.00 | 0.00 | 81 | 1011.9 | |
| 20260510041016 | 76 | 0.0 | 0.0 | 0.00 | 0.00 | 0.00 | 81 | 1011.9 | |
| 20260510040516 | 76 | 0.0 | 1.0 | 0.00 | 0.00 | 0.00 | 81 | 1011.8 | |
| 20260510040017 | 76 | 0.0 | 3.0 | 0.00 | 0.00 | 0.00 | 81 | 1011.8 | |
| 20260510035517 | 76 | 158 | 1.0 | 4.0 | 0.00 | 0.00 | 0.00 | 81 | 1011.8 |
| 20260510035016 | 76 | 158 | 1.0 | 3.0 | 0.00 | 0.00 | 0.00 | 80 | 1011.8 |
| 20260510034517 | 77 | 158 | 1.0 | 4.0 | 0.00 | 0.00 | 0.00 | 79 | 1011.7 |
| 20260510034016 | 77 | 158 | 1.0 | 3.0 | 0.00 | 0.00 | 0.00 | 79 | 1011.8 |
| 20260510033537 | 77 | 158 | 1.0 | 6.0 | 0.00 | 0.00 | 0.00 | 79 | 1011.8 |
| 20260510033016 | 77 | 158 | 1.0 | 6.0 | 0.00 | 0.00 | 0.00 | 78 | 1011.7 |
| 20260510032517 | 77 | 135 | 1.0 | 5.0 | 0.00 | 0.00 | 0.00 | 78 | 1011.6 |
| 20260510032016 | 77 | 158 | 2.0 | 5.0 | 0.00 | 0.00 | 0.00 | 78 | 1011.6 |
| 20260510031517 | 78 | 158 | 2.0 | 4.0 | 0.00 | 0.00 | 0.00 | 77 | 1011.6 |
| 20260510031036 | 78 | 0.0 | 3.0 | 0.00 | 0.00 | 0.00 | 76 | 1011.6 | |
| 20260510030516 | 78 | 158 | 1.0 | 7.0 | 0.00 | 0.00 | 0.00 | 76 | 1011.3 |
| 20260510030016 | 78 | 158 | 1.0 | 4.0 | 0.00 | 0.00 | 0.00 | 75 | 1011.4 |
| 20260510025516 | 78 | 135 | 1.0 | 7.0 | 0.00 | 0.00 | 0.00 | 75 | 1011.5 |
| 20260510025037 | 78 | 158 | 1.0 | 3.0 | 0.00 | 0.00 | 0.00 | 74 | 1011.4 |
| 20260510024537 | 78 | 158 | 1.0 | 5.0 | 0.00 | 0.00 | 0.00 | 74 | 1011.2 |
| 20260510024017 | 77 | 135 | 1.0 | 4.0 | 0.00 | 0.00 | 0.00 | 74 | 1011.1 |
| 20260510023517 | 77 | 135 | 1.0 | 4.0 | 0.00 | 0.00 | 0.00 | 73 | 1011.0 |
| 20260510023016 | 77 | 0.0 | 0.0 | 0.00 | 0.00 | 0.00 | 73 | 1011.0 | |
| 20260510022516 | 78 | 0.0 | 0.0 | 0.00 | 0.00 | 0.00 | 72 | 1010.9 | |
| 20260510022017 | 78 | 0.0 | 1.0 | 0.00 | 0.00 | 0.00 | 72 | 1010.8 | |
| 20260510021537 | 78 | 0.0 | 1.0 | 0.00 | 0.00 | 0.00 | 72 | 1010.6 | |
| 20260510021017 | 78 | 0.0 | 2.0 | 0.00 | 0.00 | 0.00 | 71 | 1010.4 | |
| 20260510020557 | 79 | 0.0 | 2.0 | 0.00 | 0.00 | 0.00 | 70 | 1010.4 | |
| 20260510020016 | 79 | 135 | 1.0 | 3.0 | 0.00 | 0.00 | 0.00 | 70 | 1010.3 |
| 20260510015516 | 79 | 135 | 1.0 | 4.0 | 0.00 | 0.00 | 0.00 | 69 | 1010.2 |
| 20260510015016 | 80 | 135 | 1.0 | 3.0 | 0.00 | 0.00 | 0.00 | 68 | 1010.1 |
| 20260510014536 | 80 | 135 | 1.0 | 3.0 | 0.00 | 0.00 | 0.00 | 68 | 1010.1 |
| 20260510014017 | 80 | 135 | 1.0 | 4.0 | 0.00 | 0.00 | 0.00 | 67 | 1010.2 |
| 20260510013618 | 80 | 135 | 1.0 | 5.0 | 0.00 | 0.00 | 0.00 | 67 | 1010.0 |
| 20260510013016 | 81 | 135 | 1.0 | 4.0 | 0.00 | 0.00 | 0.00 | 66 | 1010.0 |
| 20260510012516 | 81 | 135 | 1.0 | 4.0 | 0.00 | 0.00 | 0.00 | 66 | 1010.1 |
| 20260510012016 | 81 | 135 | 1.0 | 4.0 | 0.00 | 0.00 | 0.00 | 65 | 1010.0 |
| 20260510011516 | 82 | 135 | 2.0 | 8.0 | 0.00 | 0.00 | 0.00 | 65 | 1010.1 |
| 20260510011016 | 82 | 135 | 1.0 | 6.0 | 0.00 | 0.00 | 0.00 | 65 | 1010.1 |
| 20260510010516 | 82 | 135 | 1.0 | 4.0 | 0.00 | 0.00 | 0.00 | 64 | 1010.1 |
| 20260510010037 | 83 | 135 | 1.0 | 7.0 | 0.00 | 0.00 | 0.00 | 64 | 1010.1 |
| 20260510005516 | 83 | 135 | 2.0 | 7.0 | 0.00 | 0.00 | 0.00 | 63 | 1010.0 |
| 20260510005016 | 83 | 135 | 1.0 | 5.0 | 0.00 | 0.00 | 0.00 | 63 | 1009.8 |
| 20260510004516 | 83 | 135 | 3.0 | 9.0 | 0.00 | 0.00 | 0.00 | 62 | 1010.0 |
| 20260510004016 | 84 | 135 | 1.0 | 7.0 | 0.00 | 0.00 | 0.00 | 60 | 1009.8 |
| 20260510003516 | 84 | 113 | 2.0 | 5.0 | 0.00 | 0.00 | 0.00 | 60 | 1009.8 |
| 20260510003016 | 84 | 135 | 2.0 | 7.0 | 0.00 | 0.00 | 0.00 | 59 | 1009.7 |
| 20260510002516 | 84 | 135 | 2.0 | 8.0 | 0.00 | 0.00 | 0.00 | 59 | 1009.7 |
| 20260510002057 | 85 | 135 | 1.0 | 4.0 | 0.00 | 0.00 | 0.00 | 59 | 1009.7 |
| 20260510001516 | 85 | 135 | 2.0 | 8.0 | 0.00 | 0.00 | 0.00 | 58 | 1009.9 |
| 20260510001016 | 85 | 113 | 2.0 | 6.0 | 0.00 | 0.00 | 0.00 | 58 | 1009.7 |
| 20260510000516 | 85 | 90 | 3.0 | 6.0 | 0.00 | 0.00 | 0.00 | 57 | 1009.7 |
| 20260510000016 | 85 | 135 | 2.0 | 7.0 | 0.00 | 0.00 | 0.00 | 57 | 1009.6 |
| 20260509235536 | 86 | 135 | 2.0 | 5.0 | 0.00 | 0.00 | 0.00 | 57 | 1009.6 |
| 20260509235016 | 86 | 90 | 2.0 | 5.0 | 0.00 | 0.00 | 0.00 | 56 | 1009.4 |
| 20260509234516 | 86 | 90 | 3.0 | 6.0 | 0.00 | 0.00 | 0.00 | 55 | 1009.3 |
| 20260509234016 | 86 | 90 | 2.0 | 8.0 | 0.00 | 0.00 | 0.00 | 56 | 1009.4 |
| 20260509233516 | 86 | 135 | 2.0 | 8.0 | 0.00 | 0.00 | 0.00 | 55 | 1009.3 |
| 20260509233016 | 86 | 90 | 2.0 | 7.0 | 0.00 | 0.00 | 0.00 | 55 | 1009.4 |
| 20260509232516 | 87 | 113 | 2.0 | 5.0 | 0.00 | 0.00 | 0.00 | 54 | 1009.3 |
| 20260509232021 | 87 | 90 | 2.0 | 5.0 | 0.00 | 0.00 | 0.00 | 55 | 1009.3 |
| 20260509231516 | 87 | 113 | 1.0 | 7.0 | 0.00 | 0.00 | 0.00 | 55 | 1009.2 |
| 20260509231016 | 87 | 90 | 3.0 | 8.0 | 0.00 | 0.00 | 0.00 | 54 | 1009.3 |
| 20260509230516 | 87 | 135 | 3.0 | 8.0 | 0.00 | 0.00 | 0.00 | 53 | 1009.2 |
| 20260509230016 | 87 | 135 | 4.0 | 9.0 | 0.00 | 0.00 | 0.00 | 54 | 1009.2 |
| 20260509225516 | 87 | 158 | 2.0 | 9.0 | 0.00 | 0.00 | 0.00 | 53 | 1009.2 |
| 20260509225016 | 88 | 158 | 1.0 | 3.0 | 0.00 | 0.00 | 0.00 | 52 | 1009.2 |
| 20260509224516 | 88 | 158 | 1.0 | 3.0 | 0.00 | 0.00 | 0.00 | 51 | 1009.3 |
| 20260509224016 | 88 | 158 | 2.0 | 6.0 | 0.00 | 0.00 | 0.00 | 51 | 1009.3 |
| 20260509223516 | 88 | 135 | 1.0 | 3.0 | 0.00 | 0.00 | 0.00 | 51 | 1009.3 |
| 20260509223016 | 88 | 113 | 2.0 | 5.0 | 0.00 | 0.00 | 0.00 | 50 | 1009.3 |
| 20260509222516 | 88 | 158 | 1.0 | 4.0 | 0.00 | 0.00 | 0.00 | 50 | 1009.1 |
| 20260509222016 | 88 | 158 | 1.0 | 4.0 | 0.00 | 0.00 | 0.00 | 53 | 1009.2 |
| 20260509221516 | 89 | 158 | 1.0 | 5.0 | 0.00 | 0.00 | 0.00 | 51 | 1009.4 |
| 20260509221036 | 88 | 158 | 1.0 | 3.0 | 0.00 | 0.00 | 0.00 | 52 | 1009.3 |
| 20260509220516 | 88 | 158 | 1.0 | 3.0 | 0.00 | 0.00 | 0.00 | 52 | 1009.3 |
| 20260509220016 | 88 | 0.0 | 3.0 | 0.00 | 0.00 | 0.00 | 54 | 1009.4 | |
| 20260509215516 | 88 | 0.0 | 1.0 | 0.00 | 0.00 | 0.00 | 53 | 1009.4 | |
| 20260509215016 | 88 | 0.0 | 2.0 | 0.00 | 0.00 | 0.00 | 53 | 1009.3 | |
| 20260509214516 | 88 | 23 | 1.0 | 3.0 | 0.00 | 0.00 | 0.00 | 52 | 1009.5 |
| 20260509214016 | 88 | 0.0 | 2.0 | 0.00 | 0.00 | 0.00 | 53 | 1009.5 | |
| 20260509213536 | 89 | 23 | 1.0 | 2.0 | 0.00 | 0.00 | 0.00 | 50 | 1009.7 |
| 20260509213016 | 88 | 0.0 | 2.0 | 0.00 | 0.00 | 0.00 | 53 | 1009.7 | |
| 20260509212536 | 88 | 23 | 3.0 | 6.0 | 0.00 | 0.00 | 0.00 | 52 | 1009.7 |
| 20260509212016 | 88 | 68 | 2.0 | 8.0 | 0.00 | 0.00 | 0.00 | 52 | 1009.8 |
| 20260509211516 | 88 | 68 | 3.0 | 6.0 | 0.00 | 0.00 | 0.00 | 51 | 1009.9 |
| 20260509211016 | 89 | 90 | 3.0 | 7.0 | 0.00 | 0.00 | 0.00 | 50 | 1010.0 |
| 20260509210516 | 89 | 90 | 2.0 | 5.0 | 0.00 | 0.00 | 0.00 | 52 | 1010.2 |
| 20260509210016 | 88 | 113 | 1.0 | 5.0 | 0.00 | 0.00 | 0.00 | 52 | 1010.2 |
| 20260509205516 | 89 | 113 | 1.0 | 5.0 | 0.00 | 0.00 | 0.00 | 50 | 1010.3 |
| 20260509205016 | 88 | 113 | 2.0 | 7.0 | 0.00 | 0.00 | 0.00 | 51 | 1010.4 |
| 20260509204516 | 87 | 180 | 1.0 | 4.0 | 0.00 | 0.00 | 0.00 | 53 | 1010.5 |
| 20260509204016 | 87 | 180 | 2.0 | 5.0 | 0.00 | 0.00 | 0.00 | 52 | 1010.5 |
| 20260509203516 | 87 | 180 | 2.0 | 5.0 | 0.00 | 0.00 | 0.00 | 51 | 1010.5 |
| 20260509203036 | 87 | 180 | 3.0 | 9.0 | 0.00 | 0.00 | 0.00 | 49 | 1010.6 |
| 20260509202516 | 87 | 135 | 4.0 | 10.0 | 0.00 | 0.00 | 0.00 | 46 | 1010.7 |
| 20260509202016 | 86 | 158 | 4.0 | 9.0 | 0.00 | 0.00 | 0.00 | 50 | 1010.7 |
| 20260509201516 | 87 | 158 | 4.0 | 11.0 | 0.00 | 0.00 | 0.00 | 48 | 1010.9 |
| 20260509201015 | 89 | 90 | 3.0 | 11.0 | 0.00 | 0.00 | 0.00 | 50 | 1011.2 |
| 20260509200515 | 90 | 90 | 2.0 | 5.0 | 0.00 | 0.00 | 0.00 | 52 | 1011.5 |
| 20260509200015 | 90 | 68 | 2.0 | 5.0 | 0.00 | 0.00 | 0.00 | 50 | 1011.4 |
| 20260509195516 | 91 | 68 | 3.0 | 7.0 | 0.00 | 0.00 | 0.00 | 50 | 1011.4 |
| 20260509195015 | 90 | 45 | 1.0 | 4.0 | 0.00 | 0.00 | 0.00 | 53 | 1011.4 |
| 20260509194516 | 89 | 23 | 3.0 | 5.0 | 0.00 | 0.00 | 0.00 | 53 | 1011.3 |
| 20260509194015 | 89 | 23 | 2.0 | 8.0 | 0.00 | 0.00 | 0.00 | 57 | 1011.3 |
| 20260509193516 | 88 | 23 | 4.0 | 8.0 | 0.00 | 0.00 | 0.00 | 52 | 1011.3 |
| 20260509193016 | 88 | 23 | 4.0 | 11.0 | 0.00 | 0.00 | 0.00 | 54 | 1011.4 |
| 20260509192516 | 88 | 338 | 4.0 | 11.0 | 0.00 | 0.00 | 0.00 | 56 | 1011.4 |
| 20260509192016 | 87 | 0 | 4.0 | 10.0 | 0.00 | 0.00 | 0.00 | 58 | 1011.3 |
| 20260509191536 | 88 | 23 | 5.0 | 10.0 | 0.00 | 0.00 | 0.00 | 56 | 1011.4 |
| 20260509191036 | 87 | 23 | 4.0 | 10.0 | 0.00 | 0.00 | 0.00 | 59 | 1011.3 |
| 20260509190515 | 87 | 23 | 5.0 | 11.0 | 0.00 | 0.00 | 0.00 | 59 | 1011.4 |
| 20260509190056 | 87 | 23 | 4.0 | 9.0 | 0.00 | 0.00 | 0.00 | 63 | 1011.5 |
| 20260509185516 | 86 | 23 | 5.0 | 11.0 | 0.00 | 0.00 | 0.00 | 65 | 1011.6 |
| 20260509185016 | 86 | 23 | 6.0 | 10.0 | 0.00 | 0.00 | 0.00 | 65 | 1011.8 |
| 20260509184555 | 85 | 23 | 5.0 | 11.0 | 0.00 | 0.00 | 0.00 | 66 | 1011.8 |
| 20260509184016 | 85 | 338 | 4.0 | 10.0 | 0.00 | 0.00 | 0.00 | 69 | 1011.8 |
| 20260509183516 | 84 | 45 | 4.0 | 10.0 | 0.00 | 0.00 | 0.00 | 71 | 1011.9 |
| 20260509183016 | 83 | 23 | 6.0 | 11.0 | 0.00 | 0.00 | 0.00 | 70 | 1011.9 |
| 20260509182515 | 83 | 23 | 4.0 | 10.0 | 0.00 | 0.00 | 0.00 | 73 | 1012.0 |
| 20260509182016 | 83 | 0 | 4.0 | 9.0 | 0.00 | 0.00 | 0.00 | 72 | 1012.0 |
| 20260509181515 | 83 | 0 | 4.0 | 9.0 | 0.00 | 0.00 | 0.00 | 70 | 1012.1 |
| 20260509181015 | 84 | 0 | 4.0 | 9.0 | 0.00 | 0.00 | 0.00 | 69 | 1012.2 |
| 20260509180516 | 84 | 293 | 2.0 | 5.0 | 0.00 | 0.00 | 0.00 | 69 | 1012.3 |
| 20260509180016 | 85 | 315 | 1.0 | 6.0 | 0.00 | 0.00 | 0.00 | 66 | 1012.5 |
| 20260509175516 | 85 | 315 | 3.0 | 7.0 | 0.00 | 0.00 | 0.00 | 67 | 1012.4 |
| 20260509175015 | 85 | 315 | 2.0 | 7.0 | 0.00 | 0.00 | 0.00 | 70 | 1012.4 |
| 20260509174515 | 84 | 315 | 1.0 | 4.0 | 0.00 | 0.00 | 0.00 | 72 | 1012.5 |
| 20260509174015 | 83 | 248 | 2.0 | 6.0 | 0.00 | 0.00 | 0.00 | 72 | 1012.4 |
| 20260509173536 | 82 | 315 | 2.0 | 6.0 | 0.00 | 0.00 | 0.00 | 75 | 1012.3 |
| 20260509173036 | 81 | 293 | 1.0 | 5.0 | 0.00 | 0.00 | 0.00 | 75 | 1012.3 |
| 20260509172515 | 82 | 270 | 1.0 | 4.0 | 0.00 | 0.00 | 0.00 | 74 | 1012.4 |
| 20260509172016 | 81 | 248 | 1.0 | 4.0 | 0.00 | 0.00 | 0.00 | 77 | 1012.6 |
| 20260509171515 | 80 | 248 | 1.0 | 4.0 | 0.00 | 0.00 | 0.00 | 75 | 1012.5 |
| 20260509171015 | 80 | 248 | 2.0 | 5.0 | 0.00 | 0.00 | 0.00 | 74 | 1012.7 |
| 20260509170515 | 81 | 248 | 2.0 | 6.0 | 0.00 | 0.00 | 0.00 | 74 | 1012.9 |
| 20260509170015 | 81 | 248 | 3.0 | 6.0 | 0.00 | 0.00 | 0.00 | 73 | 1012.8 |
| 20260509165536 | 82 | 270 | 2.0 | 7.0 | 0.00 | 0.00 | 0.00 | 72 | 1012.9 |
| 20260509165016 | 83 | 225 | 3.0 | 8.0 | 0.00 | 0.00 | 0.00 | 74 | 1013.0 |
| 20260509164515 | 82 | 225 | 3.0 | 9.0 | 0.00 | 0.00 | 0.00 | 73 | 1012.7 |
| 20260509164016 | 83 | 225 | 3.0 | 10.0 | 0.00 | 0.00 | 0.00 | 72 | 1012.7 |
| 20260509163515 | 83 | 225 | 4.0 | 10.0 | 0.00 | 0.00 | 0.00 | 72 | 1012.6 |
| 20260509163035 | 83 | 180 | 3.0 | 8.0 | 0.00 | 0.00 | 0.00 | 74 | 1012.8 |
| 20260509162535 | 82 | 203 | 4.0 | 9.0 | 0.00 | 0.00 | 0.00 | 74 | 1012.8 |
| 20260509162015 | 81 | 225 | 4.0 | 9.0 | 0.00 | 0.00 | 0.00 | 75 | 1012.8 |
| 20260509161535 | 80 | 248 | 3.0 | 10.0 | 0.00 | 0.00 | 0.00 | 77 | 1012.7 |
| 20260509161015 | 80 | 225 | 4.0 | 8.0 | 0.00 | 0.00 | 0.00 | 79 | 1012.6 |
| 20260509160515 | 80 | 225 | 3.0 | 9.0 | 0.00 | 0.00 | 0.00 | 80 | 1012.7 |
| 20260509160015 | 80 | 203 | 3.0 | 8.0 | 0.00 | 0.00 | 0.00 | 78 | 1012.7 |
| 20260509155535 | 81 | 180 | 2.0 | 8.0 | 0.00 | 0.00 | 0.00 | 78 | 1012.7 |
| 20260509155015 | 81 | 180 | 2.0 | 9.0 | 0.00 | 0.00 | 0.00 | 78 | 1012.7 |
| 20260509154515 | 81 | 203 | 3.0 | 9.0 | 0.00 | 0.00 | 0.00 | 78 | 1012.5 |
| 20260509154015 | 82 | 203 | 3.0 | 9.0 | 0.00 | 0.00 | 0.00 | 78 | 1012.4 |
| 20260509153515 | 81 | 225 | 5.0 | 10.0 | 0.00 | 0.00 | 0.00 | 77 | 1012.3 |
| 20260509153036 | 81 | 225 | 4.0 | 13.0 | 0.00 | 0.00 | 0.00 | 78 | 1012.0 |
| 20260509152515 | 81 | 203 | 4.0 | 13.0 | 0.00 | 0.00 | 0.00 | 78 | 1012.0 |
| 20260509152015 | 81 | 225 | 2.0 | 8.0 | 0.00 | 0.00 | 0.00 | 78 | 1012.0 |
| 20260509151515 | 81 | 225 | 2.0 | 7.0 | 0.00 | 0.00 | 0.00 | 78 | 1012.0 |
| 20260509151015 | 81 | 180 | 3.0 | 7.0 | 0.00 | 0.00 | 0.00 | 77 | 1012.0 |
| 20260509150515 | 81 | 158 | 3.0 | 6.0 | 0.00 | 0.00 | 0.00 | 78 | 1011.9 |
| 20260509150015 | 81 | 158 | 2.0 | 10.0 | 0.00 | 0.00 | 0.00 | 79 | 1011.9 |
| 20260509145515 | 81 | 180 | 3.0 | 10.0 | 0.00 | 0.00 | 0.00 | 79 | 1011.9 |
| 20260509145015 | 80 | 203 | 3.0 | 10.0 | 0.00 | 0.00 | 0.00 | 79 | 1011.8 |
| 20260509144515 | 80 | 203 | 3.0 | 10.0 | 0.00 | 0.00 | 0.00 | 79 | 1011.7 |
| 20260509144015 | 80 | 203 | 3.0 | 10.0 | 0.00 | 0.00 | 0.00 | 79 | 1011.7 |
| 20260509143515 | 79 | 203 | 4.0 | 10.0 | 0.00 | 0.00 | 0.00 | 81 | 1011.6 |
| 20260509143015 | 79 | 203 | 3.0 | 8.0 | 0.00 | 0.00 | 0.00 | 83 | 1011.6 |
| 20260509142515 | 78 | 225 | 2.0 | 7.0 | 0.00 | 0.00 | 0.00 | 84 | 1011.6 |
| 20260509142015 | 78 | 203 | 2.0 | 6.0 | 0.00 | 0.00 | 0.00 | 84 | 1011.5 |
| 20260509141515 | 77 | 203 | 2.0 | 7.0 | 0.00 | 0.00 | 0.00 | 85 | 1011.4 |
| 20260509141015 | 77 | 180 | 2.0 | 4.0 | 0.00 | 0.00 | 0.00 | 86 | 1011.4 |
| 20260509140555 | 76 | 225 | 2.0 | 6.0 | 0.00 | 0.00 | 0.00 | 86 | 1011.4 |
| 20260509140015 | 76 | 180 | 1.0 | 6.0 | 0.00 | 0.00 | 0.00 | 82 | 1011.4 |
| 20260509135515 | 75 | 225 | 1.0 | 7.0 | 0.00 | 0.00 | 0.00 | 77 | 1011.2 |
| 20260509135015 | 75 | 203 | 2.0 | 6.0 | 0.00 | 0.00 | 0.00 | 73 | 1011.3 |
| 20260509134515 | 74 | 180 | 4.0 | 9.0 | 0.00 | 0.00 | 0.00 | 72 | 1011.1 |
| 20260509134015 | 74 | 180 | 2.0 | 9.0 | 0.00 | 0.00 | 0.00 | 72 | 1011.1 |
| 20260509133515 | 73 | 180 | 4.0 | 12.0 | 0.00 | 0.00 | 0.00 | 72 | 1011.3 |
| 20260509133015 | 73 | 180 | 4.0 | 12.0 | 0.00 | 0.00 | 0.00 | 72 | 1011.4 |
| 20260509132535 | 73 | 158 | 4.0 | 9.0 | 0.00 | 0.00 | 0.00 | 72 | 1011.5 |
| 20260509132017 | 72 | 158 | 4.0 | 11.0 | 0.00 | 0.00 | 0.00 | 72 | 1011.3 |
| 20260509131517 | 72 | 158 | 3.0 | 11.0 | 0.00 | 0.00 | 0.00 | 72 | 1011.2 |
| 20260509131017 | 72 | 180 | 4.0 | 10.0 | 0.00 | 0.00 | 0.00 | 72 | 1011.2 |
| 20260509130517 | 72 | 203 | 3.0 | 7.0 | 0.00 | 0.00 | 0.00 | 72 | 1011.3 |
| 20260509130017 | 72 | 180 | 2.0 | 6.0 | 0.00 | 0.00 | 0.00 | 72 | 1011.4 |
| 20260509125537 | 72 | 225 | 2.0 | 5.0 | 0.00 | 0.00 | 0.00 | 73 | 1011.5 |
| 20260509125037 | 71 | 248 | 1.0 | 3.0 | 0.00 | 0.00 | 0.00 | 73 | 1011.6 |
| 20260509124517 | 71 | 248 | 1.0 | 4.0 | 0.00 | 0.00 | 0.00 | 73 | 1011.6 |
| 20260509124017 | 71 | 0.0 | 2.0 | 0.00 | 0.00 | 0.00 | 73 | 1011.8 | |
| 20260509123517 | 71 | 0.0 | 1.0 | 0.00 | 0.00 | 0.00 | 73 | 1011.8 | |
| 20260509123017 | 71 | 0.0 | 2.0 | 0.00 | 0.00 | 0.00 | 73 | 1011.8 | |
| 20260509122517 | 71 | 23 | 1.0 | 3.0 | 0.00 | 0.00 | 0.00 | 73 | 1011.6 |
| 20260509122017 | 71 | 0.0 | 0.0 | 0.00 | 0.00 | 0.00 | 73 | 1011.8 | |
| 20260509121517 | 71 | 0.0 | 0.0 | 0.00 | 0.00 | 0.00 | 73 | 1011.7 | |
| 20260509121017 | 71 | 0.0 | 2.0 | 0.00 | 0.00 | 0.00 | 73 | 1011.8 | |
| 20260509120516 | 71 | 0.0 | 0.0 | 0.00 | 0.00 | 0.00 | 73 | 1012.0 | |
| 20260509120017 | 71 | 0.0 | 0.0 | 0.00 | 0.00 | 0.00 | 73 | 1012.1 | |
| 20260509115516 | 71 | 0.0 | 1.0 | 0.00 | 0.00 | 0.00 | 73 | 1012.2 | |
| 20260509115057 | 71 | 23 | 1.0 | 2.0 | 0.00 | 0.00 | 0.00 | 73 | 1012.1 |
| 20260509114517 | 71 | 0.0 | 0.0 | 0.00 | 0.00 | 0.00 | 73 | 1012.1 | |
| 20260509114057 | 71 | 0.0 | 0.0 | 0.00 | 0.00 | 0.00 | 73 | 1012.2 | |
| 20260509113537 | 71 | 0.0 | 0.0 | 0.00 | 0.00 | 0.00 | 73 | 1012.5 | |
| 20260509113017 | 71 | 0.0 | 1.0 | 0.00 | 0.00 | 0.00 | 73 | 1012.4 | |
| 20260509112537 | 71 | 0.0 | 1.0 | 0.00 | 0.00 | 0.00 | 73 | 1012.5 | |
| 20260509112017 | 71 | 23 | 1.0 | 2.0 | 0.00 | 0.00 | 0.00 | 74 | 1012.8 |
| 20260509111517 | 71 | 23 | 1.0 | 3.0 | 0.00 | 0.00 | 0.00 | 74 | 1012.7 |
| 20260509111017 | 71 | 23 | 2.0 | 4.0 | 0.00 | 0.00 | 0.00 | 74 | 1013.0 |
| 20260509110516 | 71 | 23 | 2.0 | 5.0 | 0.00 | 0.00 | 0.00 | 74 | 1013.2 |
| 20260509110017 | 71 | 23 | 1.0 | 3.0 | 0.00 | 0.00 | 0.00 | 74 | 1012.9 |
| 20260509105517 | 71 | 23 | 1.0 | 2.0 | 0.00 | 0.00 | 0.00 | 74 | 1012.9 |
| 20260509105037 | 71 | 23 | 1.0 | 3.0 | 0.00 | 0.00 | 0.00 | 74 | 1013.0 |
| 20260509104516 | 71 | 23 | 1.0 | 3.0 | 0.00 | 0.00 | 0.00 | 74 | 1013.1 |
| 20260509104017 | 71 | 0.0 | 3.0 | 0.00 | 0.00 | 0.00 | 74 | 1013.1 | |
| 20260509103516 | 71 | 0.0 | 0.0 | 0.00 | 0.00 | 0.00 | 74 | 1013.2 | |
| 20260509103017 | 71 | 0.0 | 0.0 | 0.00 | 0.00 | 0.00 | 74 | 1013.0 | |
| 20260509102516 | 71 | 0.0 | 1.0 | 0.00 | 0.00 | 0.00 | 74 | 1013.0 | |
| 20260509102017 | 71 | 0.0 | 2.0 | 0.00 | 0.00 | 0.00 | 74 | 1012.8 | |
| 20260509101537 | 71 | 23 | 2.0 | 3.0 | 0.00 | 0.00 | 0.00 | 74 | 1012.8 |
| 20260509101017 | 71 | 23 | 3.0 | 5.0 | 0.00 | 0.00 | 0.00 | 75 | 1012.8 |
| 20260509100516 | 71 | 23 | 4.0 | 7.0 | 0.00 | 0.00 | 0.00 | 75 | 1012.7 |
| 20260509100017 | 71 | 23 | 2.0 | 6.0 | 0.00 | 0.00 | 0.00 | 75 | 1012.7 |
| 20260509095516 | 71 | 23 | 1.0 | 3.0 | 0.00 | 0.00 | 0.00 | 75 | 1012.5 |
| 20260509095016 | 71 | 113 | 2.0 | 5.0 | 0.00 | 0.00 | 0.00 | 75 | 1012.4 |
| 20260509094516 | 71 | 135 | 2.0 | 4.0 | 0.00 | 0.00 | 0.00 | 75 | 1012.3 |
| 20260509094037 | 71 | 135 | 1.0 | 3.0 | 0.00 | 0.00 | 0.00 | 75 | 1012.1 |
| 20260509093516 | 71 | 0.0 | 0.0 | 0.00 | 0.00 | 0.00 | 76 | 1011.8 | |
| 20260509093016 | 71 | 0.0 | 3.0 | 0.00 | 0.00 | 0.00 | 76 | 1011.7 | |
| 20260509092537 | 71 | 135 | 1.0 | 3.0 | 0.00 | 0.00 | 0.00 | 76 | 1011.6 |
| 20260509092016 | 71 | 135 | 1.0 | 3.0 | 0.00 | 0.00 | 0.00 | 76 | 1011.5 |
| 20260509091517 | 71 | 0.0 | 1.0 | 0.00 | 0.00 | 0.00 | 76 | 1011.3 | |
| 20260509091016 | 71 | 0.0 | 1.0 | 0.00 | 0.00 | 0.00 | 77 | 1011.4 | |
| 20260509090517 | 71 | 0.0 | 1.0 | 0.00 | 0.00 | 0.00 | 77 | 1011.4 | |
| 20260509090017 | 71 | 0.0 | 2.0 | 0.00 | 0.00 | 0.00 | 77 | 1011.5 | |
| 20260509085517 | 71 | 0.0 | 0.0 | 0.00 | 0.00 | 0.00 | 77 | 1011.4 | |
| 20260509085016 | 71 | 0.0 | 0.0 | 0.00 | 0.00 | 0.00 | 77 | 1011.6 | |
| 20260509084517 | 71 | 0.0 | 2.0 | 0.00 | 0.00 | 0.00 | 78 | 1011.7 | |
| 20260509084016 | 71 | 0.0 | 0.0 | 0.00 | 0.00 | 0.00 | 78 | 1011.8 | |
| 20260509083518 | 71 | 0.0 | 0.0 | 0.00 | 0.00 | 0.00 | 78 | 1012.1 | |
| 20260509083017 | 71 | 0.0 | 2.0 | 0.00 | 0.00 | 0.00 | 79 | 1012.2 | |
| 20260509082516 | 71 | 0.0 | 1.0 | 0.00 | 0.00 | 0.00 | 79 | 1012.1 | |
| 20260509082016 | 71 | 0.0 | 2.0 | 0.00 | 0.00 | 0.00 | 80 | 1011.9 | |
| 20260509081516 | 72 | 0.0 | 0.0 | 0.00 | 0.00 | 0.00 | 80 | 1011.9 | |
| 20260509081016 | 72 | 0.0 | 1.0 | 0.00 | 0.00 | 0.00 | 81 | 1011.8 | |
| 20260509080516 | 72 | 0.0 | 0.0 | 0.00 | 0.00 | 0.00 | 81 | 1011.8 | |
| 20260509080016 | 72 | 0.0 | 2.0 | 0.00 | 0.00 | 0.00 | 82 | 1012.1 | |
| 20260509075517 | 72 | 0.0 | 2.0 | 0.00 | 0.00 | 0.00 | 82 | 1012.2 | |
| 20260509075036 | 72 | 113 | 1.0 | 4.0 | 0.00 | 0.00 | 0.00 | 82 | 1012.3 |
| 20260509074516 | 72 | 135 | 1.0 | 3.0 | 0.00 | 0.00 | 0.00 | 83 | 1012.1 |
| 20260509074016 | 72 | 135 | 1.0 | 3.0 | 0.00 | 0.00 | 0.00 | 83 | 1012.3 |
| 20260509073516 | 72 | 135 | 1.0 | 3.0 | 0.00 | 0.00 | 0.00 | 83 | 1012.5 |
| 20260509073016 | 72 | 135 | 1.0 | 3.0 | 0.00 | 0.00 | 0.00 | 84 | 1012.6 |
| 20260509072516 | 72 | 158 | 1.0 | 3.0 | 0.00 | 0.00 | 0.00 | 84 | 1012.5 |
| 20260509072036 | 72 | 0.0 | 2.0 | 0.00 | 0.00 | 0.00 | 84 | 1012.7 | |
| 20260509071516 | 72 | 158 | 1.0 | 3.0 | 0.00 | 0.00 | 0.00 | 84 | 1012.7 |
| 20260509071017 | 72 | 158 | 1.0 | 2.0 | 0.00 | 0.00 | 0.00 | 85 | 1012.7 |
| 20260509070516 | 73 | 158 | 1.0 | 2.0 | 0.00 | 0.00 | 0.00 | 85 | 1012.7 |
| 20260509070016 | 73 | 158 | 1.0 | 4.0 | 0.00 | 0.00 | 0.00 | 85 | 1012.6 |
| 20260509065516 | 73 | 0.0 | 2.0 | 0.00 | 0.00 | 0.00 | 85 | 1012.5 | |
| 20260509065016 | 73 | 0.0 | 2.0 | 0.00 | 0.00 | 0.00 | 85 | 1012.5 | |
| 20260509064516 | 73 | 0.0 | 0.0 | 0.00 | 0.00 | 0.00 | 85 | 1012.5 | |
| 20260509064016 | 73 | 0.0 | 0.0 | 0.00 | 0.00 | 0.00 | 85 | 1012.6 | |
| 20260509063516 | 73 | 0.0 | 0.0 | 0.00 | 0.00 | 0.00 | 86 | 1012.6 | |
| 20260509063016 | 73 | 0.0 | 0.0 | 0.00 | 0.00 | 0.00 | 86 | 1012.6 | |
| 20260509062516 | 73 | 0.0 | 0.0 | 0.00 | 0.00 | 0.00 | 86 | 1012.5 | |
| 20260509062016 | 73 | 158 | 1.0 | 3.0 | 0.00 | 0.00 | 0.00 | 86 | 1012.4 |
| 20260509061516 | 73 | 0.0 | 3.0 | 0.00 | 0.00 | 0.00 | 86 | 1012.2 | |
| 20260509061017 | 73 | 158 | 1.0 | 4.0 | 0.00 | 0.00 | 0.00 | 86 | 1012.3 |
| 20260509060557 | 73 | 158 | 2.0 | 6.0 | 0.00 | 0.00 | 0.00 | 86 | 1012.3 |
| 20260509060016 | 73 | 158 | 4.0 | 10.0 | 0.00 | 0.00 | 0.00 | 88 | 1012.1 |
| 20260509055516 | 73 | 180 | 3.0 | 10.0 | 0.00 | 0.00 | 0.00 | 88 | 1012.1 |
| 20260509055016 | 73 | 158 | 3.0 | 9.0 | 0.00 | 0.00 | 0.00 | 88 | 1012.2 |
| 20260509054516 | 73 | 135 | 3.0 | 10.0 | 0.00 | 0.00 | 0.00 | 88 | 1011.8 |
| 20260509054016 | 73 | 135 | 3.0 | 10.0 | 0.00 | 0.00 | 0.00 | 88 | 1011.5 |
| 20260509053516 | 73 | 135 | 3.0 | 11.0 | 0.00 | 0.00 | 0.00 | 88 | 1011.3 |
| 20260509053016 | 73 | 158 | 4.0 | 9.0 | 0.00 | 0.00 | 0.00 | 88 | 1011.2 |
| 20260509052516 | 73 | 158 | 2.0 | 6.0 | 0.00 | 0.00 | 0.00 | 88 | 1011.0 |
| 20260509052016 | 73 | 158 | 2.0 | 8.0 | 0.00 | 0.00 | 0.00 | 88 | 1011.0 |
| 20260509051536 | 73 | 135 | 2.0 | 5.0 | 0.00 | 0.00 | 0.00 | 88 | 1011.0 |
| 20260509051016 | 73 | 135 | 3.0 | 9.0 | 0.00 | 0.00 | 0.00 | 88 | 1010.8 |
| 20260509050516 | 73 | 135 | 3.0 | 9.0 | 0.00 | 0.00 | 0.00 | 88 | 1010.7 |